Location: Tallent
(37.4653°N, 90.0684°W)
Time: 06:13:26
(UTC+00:00)

Daily predictions for brighter satellites

Satellite Brightness Start Highest point End
(mag) Time Altitude Azimuth Time Altitude Azimuth Time Altitude Azimuth
CBERS-1 4.0 12:02:08 10° N 12:07:15 78° WNW 12:12:20 10° SSW
Cosmos 1025 Rocket 3.2 12:04:36 10° SSW 12:08:48 49° W 12:13:02 10° N
Cosmos 2297 3.8 12:09:11 10° NNW 12:14:42 59° WSW 12:20:12 10° S
Cosmos 1674 Rocket 4.4 12:10:59 10° SW 12:14:51 29° WNW 12:18:45 10° NNW
Cosmos 1943 3.4 12:10:31 10° SW 12:15:56 50° WNW 12:21:23 10° NNE
Landsat 7 4.3 23:09:13 10° SE 23:13:28 37° ENE 23:17:44 10° N
Cosmos 1725 Rocket 4.4 23:08:10 10° SSW 23:14:24 72° W 23:20:43 10° N
Cosmos 2233 Rocket 4.0 23:09:22 10° S 23:15:38 79° E 23:21:57 10° N
Cosmos 1300 Rocket 3.6 23:12:25 10° S 23:16:48 86° W 23:21:12 10° N
CORIOLIS 4.1 23:14:25 10° SSE 23:19:45 69° ENE 23:25:04 10° N
Cosmos 407 Rocket 3.7 23:19:08 10° S 23:24:10 52° ESE 23:29:10 10° NNE
ISS -3.3 23:21:20 10° WSW 23:24:38 59° NW 23:27:56 10° NE
CZ-2D R/B 3.0 23:22:45 10° SSE 23:25:45 44° ENE 23:28:47 10° N
SL-12 R/B(2) 4.2 23:18:49 10° SSW 23:26:21 74° ESE 23:35:26 10° NE
Cosmos 1943 Rocket 2.4 23:23:08 10° S 23:28:33 52° ESE 23:33:58 10° NNE
OAO 3 Rocket 3.8 23:24:22 10° WSW 23:28:50 47° SSE 23:33:15 10° E
Cosmos 2278 Rocket 2.4 23:23:31 10° S 23:28:56 50° ESE 23:34:22 10° NNE
Cosmos 2082 Rocket 3.7 23:26:24 10° NNE 23:29:43 16° NE 23:33:01 10° E
Aureole 3 Rocket 3.3 23:28:21 10° SSE 23:31:01 25° E 23:33:35 10° NE
IRS-1C 4.1 23:25:59 10° SSE 23:31:14 67° ENE 23:36:31 10° N
Cosmos 1975 Rocket 3.1 23:29:27 10° N 23:33:44 55° E 23:38:01 10° SSE
ATLAS 5 CENTAUR R/B 2.1 23:31:31 10° NNW 23:36:03 51° NE 23:41:38 10° SE
MOS 1 Rocket 3.5 23:35:42 10° SE 23:39:39 39° ENE 23:43:44 10° N
SAR-Lupe-1 3.9 23:36:24 10° SSE 23:39:56 82° ENE 23:43:31 10° N
COSMO-SKYMED 1 3.4 23:37:17 10° NE 23:40:47 26° E 23:44:14 10° SSE
USA 215 3.2 23:35:37 10° SE 23:42:06 74° NE 23:48:38 10° NW
SKYMED 2 3.9 23:41:00 10° NNE 23:45:11 45° E 23:49:20 10° S
Okean 1 Rocket 4.5 23:42:45 10° SE 23:45:39 17° E 23:46:31 16° ENE
Helios 1A Rocket 3.4 23:43:02 12° NE 23:45:39 27° E 23:48:35 10° SSE
SAR-Lupe-4 4.4 23:48:38 10° S 23:52:07 54° W 23:55:39 10° NNW
RESURS DK-1 3.1 23:51:44 10° N 23:55:13 28° ENE 23:57:09 19° ESE
